| time (UTC) | temp C | wind direction | speed KPH | gust KPH | rain 1hr cm | rain 24hr cm | rain mn cm | humidity % | barometer mb |
| 20260506184523 | 22 | 327 | 3.2 | 16.1 | 0.00 | 0.00 | 0.00 | 34 | 1015.2 |
| 20260506183021 | 22 | 51 | 3.2 | 14.5 | 0.00 | 0.00 | 0.00 | 30 | 1015.4 |
| 20260506181520 | 22 | 250 | 1.6 | 8.0 | 0.00 | 0.00 | 0.00 | 34 | 1015.5 |
| 20260506180019 | 21 | 237 | 1.6 | 6.4 | 0.00 | 0.00 | 0.00 | 36 | 1015.6 |
| 20260506174515 | 21 | 288 | 1.6 | 8.0 | 0.00 | 0.00 | 0.00 | 37 | 1015.7 |
| 20260506173015 | 21 | 142 | 0.0 | 4.8 | 0.00 | 0.00 | 0.00 | 37 | 1015.8 |
| 20260506171553 | 20 | 219 | 0.0 | 4.8 | 0.00 | 0.00 | 0.00 | 36 | 1016.0 |
| 20260506170049 | 19 | 265 | 1.6 | 8.0 | 0.00 | 0.00 | 0.00 | 36 | 1016.1 |
| 20260506164537 | 18 | 15 | 3.2 | 8.0 | 0.00 | 0.00 | 0.00 | 39 | 1016.2 |
| 20260506163028 | 18 | 337 | 1.6 | 8.0 | 0.00 | 0.00 | 0.00 | 40 | 1016.3 |
| 20260506161527 | 17 | 360 | 0.0 | 3.2 | 0.00 | 0.00 | 0.00 | 41 | 1016.4 |
| 20260506160021 | 16 | 19 | 0.0 | 3.2 | 0.00 | 0.00 | 0.00 | 44 | 1016.5 |
| 20260506154519 | 14 | 68 | 0.0 | 3.2 | 0.00 | 0.00 | 0.00 | 50 | 1016.5 |
| 20260506153012 | 13 | 70 | 0.0 | 3.2 | 0.00 | 0.00 | 0.00 | 53 | 1016.4 |
| 20260506151509 | 12 | 61 | 0.0 | 3.2 | 0.00 | 0.00 | 0.00 | 58 | 1016.6 |
| 20260506150005 | 11 | 59 | 0.0 | 3.2 | 0.00 | 0.00 | 0.00 | 61 | 1016.6 |
| 20260506144546 | 11 | 12 | 0.0 | 1.6 | 0.00 | 0.00 | 0.00 | 61 | 1016.5 |
| 20260506143044 | 10 | 360 | 1.6 | 3.2 | 0.00 | 0.00 | 0.00 | 61 | 1016.3 |
| 20260506141602 | 10 | 5 | 1.6 | 6.4 | 0.00 | 0.03 | 0.00 | 63 | 1016.1 |
| 20260506140041 | 8 | 338 | 0.0 | 3.2 | 0.00 | 0.03 | 0.00 | 68 | 1015.9 |
| 20260506134540 | 7 | 5 | 0.0 | 4.8 | 0.00 | 0.03 | 0.00 | 72 | 1015.8 |
| 20260506133037 | 6 | 325 | 0.0 | 4.8 | 0.00 | 0.03 | 0.00 | 73 | 1015.5 |
| 20260506131539 | 6 | 355 | 0.0 | 3.2 | 0.00 | 0.05 | 0.00 | 73 | 1015.4 |
| 20260506130034 | 6 | 296 | 0.0 | 3.2 | 0.00 | 0.05 | 0.00 | 73 | 1015.0 |
| 20260506124537 | 5 | 288 | 0.0 | 3.2 | 0.00 | 0.05 | 0.00 | 72 | 1014.9 |
| 20260506123021 | 6 | 277 | 0.0 | 3.2 | 0.00 | 0.05 | 0.00 | 70 | 1014.6 |
| 20260506121516 | 6 | 276 | 0.0 | 1.6 | 0.00 | 0.05 | 0.00 | 69 | 1014.6 |
| 20260506120011 | 6 | 276 | 0.0 | 1.6 | 0.00 | 0.05 | 0.00 | 68 | 1014.4 |
| 20260506114510 | 7 | 192 | 0.0 | 0.0 | 0.00 | 0.05 | 0.00 | 66 | 1014.3 |
| 20260506113008 | 7 | 192 | 0.0 | 1.6 | 0.00 | 0.05 | 0.00 | 67 | 1014.2 |
| 20260506111503 | 7 | 192 | 0.0 | 1.6 | 0.00 | 0.05 | 0.00 | 66 | 1014.2 |
| 20260506110002 | 7 | 220 | 0.0 | 3.2 | 0.00 | 0.05 | 0.00 | 65 | 1013.9 |
| 20260506104602 | 7 | 213 | 0.0 | 3.2 | 0.00 | 0.05 | 0.00 | 66 | 1013.8 |
| 20260506103042 | 8 | 149 | 0.0 | 1.6 | 0.00 | 0.05 | 0.00 | 65 | 1013.6 |
| 20260506101540 | 8 | 65 | 0.0 | 1.6 | 0.00 | 0.05 | 0.00 | 65 | 1013.6 |
| 20260506100023 | 9 | 94 | 0.0 | 3.2 | 0.00 | 0.05 | 0.00 | 63 | 1013.4 |
| 20260506094530 | 9 | 140 | 0.0 | 3.2 | 0.00 | 0.05 | 0.00 | 62 | 1013.3 |
| 20260506093008 | 9 | 220 | 0.0 | 3.2 | 0.00 | 0.05 | 0.00 | 63 | 1013.2 |
| 20260506091507 | 9 | 222 | 0.0 | 4.8 | 0.00 | 0.05 | 0.00 | 62 | 1013.4 |
| 20260506090006 | 9 | 268 | 0.0 | 3.2 | 0.00 | 0.05 | 0.00 | 62 | 1013.4 |
| 20260506084505 | 8 | 268 | 0.0 | 6.4 | 0.00 | 0.05 | 0.00 | 63 | 1013.2 |
| 20260506083004 | 8 | 234 | 0.0 | 3.2 | 0.00 | 0.05 | 0.00 | 65 | 1013.3 |
| 20260506081504 | 8 | 244 | 0.0 | 4.8 | 0.00 | 0.05 | 0.00 | 67 | 1013.1 |
| 20260506080110 | 8 | 273 | 0.0 | 3.2 | 0.00 | 0.05 | 0.00 | 68 | 1013.3 |
| 20260506073039 | 8 | 213 | 0.0 | 1.6 | 0.00 | 0.05 | 0.00 | 67 | 1013.2 |
| 20260506071546 | 8 | 225 | 0.0 | 0.0 | 0.00 | 0.05 | 0.00 | 65 | 1013.0 |
| 20260506061513 | 10 | 347 | 0.0 | 3.2 | 0.00 | 0.15 | 0.00 | 59 | 1012.5 |
| 20260506044552 | 10 | 251 | 0.0 | 1.6 | 0.00 | 0.15 | 0.00 | 57 | 1011.7 |
| 20260506043020 | 11 | 330 | 0.0 | 3.2 | 0.00 | 0.15 | 0.00 | 54 | 1011.4 |
| 20260506041518 | 11 | 270 | 0.0 | 1.6 | 0.00 | 0.15 | 0.15 | 54 | 1011.2 |
| 20260506040006 | 12 | 288 | 0.0 | 4.8 | 0.00 | 0.15 | 0.15 | 53 | 1011.0 |
| 20260506034506 | 12 | 258 | 0.0 | 1.6 | 0.00 | 0.15 | 0.15 | 53 | 1010.7 |
| 20260506033006 | 13 | 257 | 0.0 | 3.2 | 0.00 | 0.15 | 0.15 | 51 | 1010.5 |
| 20260506031512 | 14 | 335 | 0.0 | 3.2 | 0.00 | 0.15 | 0.15 | 48 | 1010.1 |
| 20260506030007 | 15 | 5 | 0.0 | 4.8 | 0.00 | 0.15 | 0.15 | 46 | 1009.8 |
| 20260506024505 | 15 | 307 | 0.0 | 12.9 | 0.00 | 0.15 | 0.15 | 44 | 1009.7 |
| 20260506023004 | 16 | 348 | 1.6 | 11.3 | 0.00 | 0.15 | 0.15 | 40 | 1009.4 |
| 20260506021503 | 17 | 16 | 4.8 | 16.1 | 0.00 | 0.15 | 0.15 | 40 | 1009.2 |
| 20260506020051 | 18 | 317 | 3.2 | 19.3 | 0.00 | 0.15 | 0.15 | 35 | 1009.1 |
| 20260506014558 | 18 | 349 | 9.7 | 24.1 | 0.00 | 0.15 | 0.15 | 34 | 1008.8 |
| 20260506013051 | 19 | 11 | 9.7 | 25.7 | 0.00 | 0.15 | 0.15 | 34 | 1008.5 |
| 20260506011556 | 20 | 308 | 6.4 | 24.1 | 0.00 | 0.15 | 0.15 | 33 | 1008.2 |
| 20260506010054 | 21 | 309 | 6.4 | 16.1 | 0.00 | 0.15 | 0.15 | 31 | 1008.3 |
| 20260506004621 | 20 | 198 | 1.6 | 11.3 | 0.00 | 0.15 | 0.15 | 28 | 1008.1 |
| 20260506003045 | 20 | 286 | 0.0 | 8.0 | 0.00 | 0.15 | 0.15 | 29 | 1008.1 |
| 20260506001544 | 20 | 29 | 3.2 | 8.0 | 0.00 | 0.15 | 0.15 | 32 | 1008.0 |
| 20260506000033 | 20 | 85 | 3.2 | 9.7 | 0.00 | 0.15 | 0.15 | 33 | 1008.1 |
| 20260505234601 | 20 | 5 | 0.0 | 6.4 | 0.00 | 0.15 | 0.15 | 33 | 1008.1 |
| 20260505233028 | 19 | 248 | 0.0 | 11.3 | 0.00 | 0.15 | 0.15 | 35 | 1008.2 |
| 20260505231526 | 19 | 269 | 1.6 | 16.1 | 0.00 | 0.15 | 0.15 | 35 | 1008.3 |
| 20260505230024 | 18 | 316 | 1.6 | 8.0 | 0.00 | 0.15 | 0.15 | 38 | 1008.5 |
| 20260505224528 | 18 | 311 | 6.4 | 16.1 | 0.00 | 0.15 | 0.15 | 37 | 1008.8 |
| 20260505223016 | 18 | 5 | 4.8 | 14.5 | 0.00 | 0.15 | 0.15 | 39 | 1009.1 |
| 20260505221513 | 18 | 317 | 6.4 | 12.9 | 0.00 | 0.15 | 0.15 | 43 | 1009.2 |
| 20260505220143 | 18 | 97 | 4.8 | 11.3 | 0.00 | 0.15 | 0.15 | 40 | 1009.4 |
| 20260505214617 | 17 | 306 | 1.6 | 6.4 | 0.00 | 0.15 | 0.15 | 46 | 1009.7 |
| 20260505213057 | 17 | 5 | 1.6 | 8.0 | 0.00 | 0.15 | 0.15 | 41 | 1009.9 |
| 20260505211612 | 17 | 243 | 4.8 | 11.3 | 0.00 | 0.15 | 0.15 | 46 | 1010.2 |
| 20260505210053 | 17 | 59 | 3.2 | 11.3 | 0.00 | 0.15 | 0.15 | 44 | 1010.4 |
| 20260505204550 | 16 | 360 | 3.2 | 8.0 | 0.00 | 0.15 | 0.15 | 47 | 1010.6 |
| 20260505203049 | 16 | 44 | 1.6 | 6.4 | 0.00 | 0.15 | 0.15 | 48 | 1010.7 |
| 20260505201543 | 15 | 281 | 1.6 | 9.7 | 0.00 | 0.15 | 0.15 | 50 | 1010.8 |
| 20260505200034 | 14 | 101 | 0.0 | 6.4 | 0.00 | 0.15 | 0.15 | 56 | 1011.2 |
| 20260505194527 | 15 | 322 | 3.2 | 8.0 | 0.00 | 0.15 | 0.15 | 55 | 1011.4 |
| 20260505193026 | 14 | 227 | 1.6 | 8.0 | 0.00 | 0.15 | 0.15 | 58 | 1011.6 |
| 20260505191524 | 13 | 130 | 0.0 | 4.8 | 0.00 | 0.15 | 0.15 | 64 | 1011.8 |
| 20260505190019 | 12 | 271 | 0.0 | 3.2 | 0.00 | 0.15 | 0.15 | 64 | 1011.8 |